CDT,Max TemperatureF,Mean TemperatureF,Min TemperatureF,Max Dew PointF,MeanDew PointF,Min DewpointF,Max Humidity, Mean Humidity, Min Humidity, Max Sea Level PressureIn, Mean Sea Level PressureIn, Min Sea Level PressureIn, Max VisibilityMiles, Mean VisibilityMiles, Min VisibilityMiles, Max Wind SpeedMPH, Mean Wind SpeedMPH, Max Gust SpeedMPH,PrecipitationIn, CloudCover, Events, WindDirDegrees
2013-3-1,55,47,39,37,32,28,77,57,36,30.13,30.08,30.01,10,10,10,14,8,,0.00,5,,324
2013-3-2,51,40,29,29,24,20,88,53,31,30.18,30.13,30.06,10,10,7,20,10,28,0.00,3,,314
2013-3-3,53,43,33,26,23,18,73,51,25,30.21,30.17,30.12,10,10,10,14,9,23,0.00,3,,313
2013-3-4,61,46,31,56,39,25,84,66,40,30.24,30.16,30.04,10,10,10,15,6,17,0.00,3,,123
2013-3-5,73,62,45,61,57,39,97,79,62,30.13,30.03,29.94,10,10,5,20,11,28,0.00,6,Rain,227
2013-3-6,60,50,39,38,28,21,76,49,24,30.26,30.20,30.14,10,10,10,18,11,28,0.00,0,,327
2013-3-7,58,46,34,43,34,26,89,64,30,30.34,30.27,30.22,10,10,10,14,7,,0.00,3,,310
2013-3-8,68,53,38,46,38,32,85,59,26,30.32,30.24,30.19,10,10,10,10,5,,0.00,4,,340
2013-3-9,66,55,44,52,46,41,90,69,49,30.27,30.20,30.11,10,9,7,14,6,,0.00,6,,117
2013-3-10,68,62,56,59,55,46,94,78,65,30.17,30.08,30.00,10,10,7,21,13,26,0.00,4,,124
2013-3-11,69,59,49,63,57,43,100,91,80,30.01,29.89,29.81,10,8,1,22,14,31,1.06,6,Rain-Thunderstorm,58
2013-3-12,67,54,42,43,35,29,85,55,26,30.18,30.07,29.94,10,10,8,18,12,26,0.00,5,,336
2013-3-13,68,54,40,36,29,19,78,42,17,30.33,30.25,30.19,10,10,6,18,8,24,0.00,1,,327
2013-3-14,65,51,37,34,24,17,67,38,16,30.42,30.34,30.27,10,9,6,16,9,20,0.00,1,,343
2013-3-15,67,52,38,51,41,31,78,61,28,30.32,30.25,30.17,10,10,10,15,6,24,0.00,0,,248
2013-3-16,74,60,48,61,55,46,94,75,48,30.16,30.10,30.04,10,10,7,15,7,23,0.00,1,,219
2013-3-17,70,62,55,64,61,55,100,94,82,30.07,30.00,29.95,10,5,0,13,5,,0.00,7,Fog-Rain,117
2013-3-18,74,68,62,68,65,60,100,90,78,29.98,29.91,29.84,10,8,2,18,8,25,0.02,6,Rain,146
2013-3-19,74,66,59,63,58,46,95,81,55,30.06,29.98,29.90,10,9,2,15,7,,0.28,5,Rain-Thunderstorm,30
2013-3-20,67,56,43,44,33,29,66,39,26,30.09,30.03,29.98,10,10,10,16,11,22,0.00,5,Rain,3
2013-3-21,67,54,42,42,29,17,73,43,15,30.07,30.01,29.92,10,10,10,15,9,23,0.00,5,,342
2013-3-22,65,56,49,50,39,28,70,50,33,30.01,29.96,29.92,10,10,10,17,9,25,0.00,7,,94
2013-3-23,69,64,60,68,58,43,100,84,48,29.92,29.79,29.63,10,8,1,13,7,,0.75,8,Rain-Thunderstorm,95
2013-3-24,81,68,52,71,61,33,100,76,41,29.89,29.65,29.57,10,7,3,17,12,26,0.06,4,Rain,250
2013-3-25,61,50,40,32,24,15,66,38,20,30.21,30.05,29.92,10,10,10,21,13,30,0.00,0,,314
2013-3-26,57,45,34,27,23,20,66,43,25,30.36,30.28,30.22,10,10,10,20,9,25,0.00,0,,333
2013-3-27,57,44,32,39,30,23,81,56,28,30.44,30.35,30.29,10,10,10,13,6,20,0.00,0,,318
2013-3-28,64,50,35,41,35,28,85,56,29,30.36,30.31,30.25,10,10,10,13,4,,0.00,1,,300
2013-3-29,69,54,40,53,42,33,87,62,28,30.35,30.29,30.24,10,10,7,13,4,,0.00,1,,231
2013-3-30,72,58,46,61,55,45,95,81,65,30.23,30.18,30.10,10,8,3,13,4,,0.00,4,Fog,154
2013-3-31,74,67,60,66,64,59,96,87,73,30.10,30.01,29.92,10,9,5,17,6,,0.00,6,Fog-Rain-Thunderstorm,192